Regional Weather Roundup
Issued by NWS Sterling, VA

Home | Current Version | Previous Version | Graphics & Text | Print | Product List | Glossary On
Versions: 1 2 3 4 5 6 7 8 9 10 11 12 13 14 15 16 17 18 19 20 21 22 23 24 25 26 27 28 29 30 31 32 33 34 35 36 37 38 39 40 41 42 43 44 45 46 47 48 49 50
000
ASUS41 KLWX 221210
RWRLWX

REGIONAL WEATHER ROUNDUP
NATIONAL WEATHER SERVICE BALTIMORE MD/WASHINGTON DC
800 AM EDT TUE JUL 22 2014

Note: "FAIR" indicates few or no clouds below 12,000 feet
with no significant weather and/or obstructions to visibility.
 TC=TEMPERATURE CELSIUS

 * =Non NWS site. Station does not report precipitation (e.g. rain,
    snow, etc.), thunder, or fog.

DCZ001-MDZ009-015-VAZ040>042-051-053>054-221300-
WASHINGTON METRO
  /KDAA//-FT BELVOIR

CITY           SKY/WX    TMP DP  RH WIND       PRES   REMARKS
WASHINGTON NAT PTSUNNY   76  69  79 S6        30.20R
DULLES         CLOUDY    72  69  90 S5        30.20R
ANDREWS AFB    SUNNY     71  71  99 S3        30.21R
QUANTICO       CLOUDY    74  70  87 CALM      30.21R
COLLEGE PARK*  CLOUDY    73  72  94 CALM      30.19R
LEESBURG*      CLOUDY    73  73 100 CALM      30.21R
MANASSAS*      CLOUDY    72  70  94 S5        30.20R FOG
GAITHERSBURG*  CLOUDY    72  68  88 E3        30.24R

$$

MDZ006>007-011-014-221300-
BALTIMORE METRO

CITY           SKY/WX    TMP DP  RH WIND       PRES   REMARKS
BWI AIRPORT    PTSUNNY   72  69  90 CALM      30.20R
MD SCIENCE CTR   N/A     76  70  82 MISG      30.20R
MARTIN STATE   PTSUNNY   75  73  94 CALM      30.21R
ANNAPOLIS      MOSUNNY   75  69  81 CALM      30.20R
FORT MEADE*    CLOUDY    70  68  94 CALM      30.22R

$$

MDZ012-015-019>023-221300-
MARYLAND EASTERN SHORE

CITY           SKY/WX    TMP DP  RH WIND       PRES   REMARKS
OCEAN CITY     SUNNY     72  69  90 E6        30.20R
SALISBURY      NOT AVBL
BAY BRIDGE AP*   N/A     75  72  88 SE3       30.20R
CAMBRIDGE*     MOSUNNY   72  68  88 CALM      30.20R
EASTON*        SUNNY     73  73 100 CALM      30.24R

$$

MDZ017>025-221300-
SOUTHERN MARYLAND

CITY           SKY/WX    TMP DP  RH WIND       PRES   REMARKS
PATUXENT RIVER PTSUNNY   74  70  87 CALM      30.19R
ST INIGOES     SUNNY     76  69  79 CALM      30.19R
LEONARDTOWN*   PTSUNNY   72  68  88 CALM      30.21R

$$

MDZ003>005-221300-
NORTH CENTRAL MARYLAND

CITY           SKY/WX    TMP DP  RH WIND       PRES   REMARKS
FREDERICK*     CLOUDY    73  73 100 CALM      30.22R
HAGERSTOWN APT CLOUDY    72  69  90 E3        30.20R FOG
WESTMINSTER*   CLOUDY    72  70  94 SE3       30.22R FOG

$$

MDZ501>502-221300-
WESTERN MARYLAND

CITY           SKY/WX    TMP DP  RH WIND       PRES   REMARKS
OAKLAND*       SUNNY     66 N/A N/A SW5       30.27R
CUMBERLAND*    CLOUDY    72  70  94 CALM      30.22R

$$

VAZ025>031-221300-
SHENANDOAH VALLEY

CITY           SKY/WX    TMP DP  RH WIND       PRES   REMARKS
WINCHESTER*    SUNNY     70  70 100 CALM      30.19R
STAUNTON*      SUNNY     71  69  93 CALM      30.23R

$$

WVZ021-048>050-054>055-221300-
EASTERN WEST VIRGINIA PANHANDLE

CITY           SKY/WX    TMP DP  RH WIND       PRES   REMARKS
MARTINSBURG    SUNNY     73  68  84 CALM      30.20R HAZE
PETERSBURG*    CLOUDY    67  62  83 CALM      30.20R

$$

VAZ036>039-050-221300-
CENTRAL FOOTHILLS

CITY           SKY/WX    TMP DP  RH WIND       PRES   REMARKS
CHARLOTTESVILL CLOUDY    73  71  93 S5        30.20R
ORANGE*        CLOUDY    72  70  94 CALM      30.21R

$$

VAZ055>057-221300-
NORTH AND CENTRAL PIEDMONT

CITY           SKY/WX    TMP DP  RH WIND       PRES   REMARKS
FREDERICKSBRG* CLOUDY    73  73 100 CALM      30.19R
STAFFORD*      CLOUDY    72  72 100 CALM      30.24R

$$

NCZ024-NYZ072-PAZ021-071-VAZ022-071-221300-
OTHER REGIONAL OBSERVATIONS

CITY           SKY/WX    TMP DP  RH WIND       PRES   REMARKS
NEW YORK CITY  SUNNY     74  63  68 CALM      30.21R
PHILADELPHIA   MOSUNNY   73  65  75 CALM      30.20R
PITTSBURGH     SUNNY     70  68  93 CALM      30.16R
ROANOKE        CLOUDY    72  70  93 SE5       30.23R
RICHMOND       PTSUNNY   73  70  90 CALM      30.19R FOG
RALEIGH        CLOUDY    73  69  87 E3        30.18R FOG

$$

ANZ530>537-221300-
MARINE OBSERVATIONS

STATION/POSITION TIME  TEMP    WIND        PRES
                       AIR SEA DIR/SP/G
                 (UTC) (F)     (DEG/KT/KT) (MB)
THOMAS PT LIGHT  1200   75 79  190/  3/  4 1023.2R
BALT KEY BRIDGE  1200   74     180/  2/  3 1022.2R
COVE POINT       1200   74      CALM  /  1 1022.1S
LEWISETTA        1200   77 79     CALM     1022.0R
SOLOMONS ISLAND  1200      81                N/A
PINEY POINT      1200           20/  2/  2   N/A

$$




USA.gov is the U.S. government's official web portal to all federal, state and local government web resources and services.